Retour au catalogue

STARLINK-36089

ActifCommunicationsVLEO
NORAD 66947·PAYLOAD·🇺🇸 United States

Lancé Dec 7, 2025 depuis Vandenberg Space Force Base

Loading…

Prochains Passages (prochaines 24 heures)

TLE

FraisSource: CelesTrak SupGP

Époque: Sep 15, 2026, 03:35 UTC

1 66947C 25286Y   26258.14979167 -.00064324  00000+0 -19008-2 0  2580
2 66947  53.1591 194.8944 0001351  88.9430 276.0466 15.34417657    14

Suivez STARLINK-36089 en temps réel avec AllMySat

Download on the App Store